Regional Weather Roundup
Issued by NWS

Home | Current Version | Previous Version | Text Only | Print | Product List | Glossary Off
Versions: 1 2 3 4 5 6 7 8 9 10 11 12 13 14 15 16 17 18 19 20 21 22 23 24 25 26 27 28 29 30 31 32 33 34 35 36 37 38 39 40 41 42 43 44 45 46 47 48 49 50

515
ASUS43 KOAX 272010
RWRNE

WEATHER ROUNDUP FOR NEBRASKA
NATIONAL WEATHER SERVICE OMAHA NE
300 PM CDT WED JUL 27 2016

NOTES: SATELLITE DATA IS BEING USED TO AUGMENT CLOUD COVER ABOVE
       12000 FEET.
       "FAIR" INDICATES FEW OR NO CLOUDS BELOW 12,000 FEET WITH NO
       SIGNIFICANT WEATHER AND/OR OBSTRUCTIONS TO VISIBILITY.

  * THESE STATIONS DO NOT REPORT WEATHER SUCH AS RAIN...SNOW OR FOG.

NEZ001>004-019>022-054>056-272100-
NEBRASKA PANHANDLE

CITY           SKY/WX    TMP DP  RH WIND       PRES   REMARKS
SCOTTSBLUFF    SUNNY     87  50  27 NE5       30.12F
ALLIANCE       SUNNY     87  53  31 VRB3      30.10F
CHADRON        SUNNY     84  56  38 NE15      30.10F
KIMBALL        SUNNY     85  58  40 E6        30.17F
SIDNEY         SUNNY     86  55  34 VRB7G17   30.15F
$$

NEZ057>060-069>072-079>082-272100-
SOUTHWEST NEBRASKA

CITY           SKY/WX    TMP DP  RH WIND       PRES   REMARKS
NORTH PLATTE   SUNNY     86  63  45 VRB5      30.07R
IMPERIAL       SUNNY     86  61  42 SE10      30.07F
LEXINGTON      CLOUDY    83  68  59 E7        30.03F
MCCOOK         SUNNY     85  68  56 SE12      30.05F
OGALLALA       SUNNY     84  57  40 E5        30.10S
$$

NEZ005>010-023>029-035>040-094-272100-
NORTH CENTRAL NEBRASKA

CITY           SKY/WX    TMP DP  RH WIND       PRES   REMARKS
VALENTINE      PTSUNNY   83  57  41 MISG      30.03F
AINSWORTH      PTSUNNY   80  64  59 NE5       30.05S
BROKEN BOW     SUNNY     80  67  64 SE12      30.02F
O`NEILL        SUNNY     82  60  46 CALM      30.04F
ORD            SUNNY     82  62  50 VRB3      30.03F
THEDFORD       PTSUNNY   83  63  52 E5        30.08S
$$

NEZ041-046>049-061>064-073>077-083>087-272100-
SOUTH CENTRAL NEBRASKA

CITY           SKY/WX    TMP DP  RH WIND       PRES   REMARKS
GRAND ISLAND   SUNNY     86  62  44 VRB3      30.03F
AURORA         SUNNY     85  63  48 N6        30.03F
HASTINGS       SUNNY     84  66  54 NW7       30.05F
HEBRON         CLOUDY    87  62  43 NW7       30.01F
HOLDREGE       MOSUNNY   80  66  62 E8        30.06F
KEARNEY *      MOSUNNY   88  25  10 N6        30.06F
YORK           MOSUNNY   84  66  54 NW6       30.02F
$$

NEZ011>018-030>034-042>045-272100-
NORTHEAST NEBRASKA

CITY           SKY/WX    TMP DP  RH WIND       PRES   REMARKS
NORFOLK        MOSUNNY   85  62  46 N6        30.00F
ALBION         SUNNY     82  62  51 CALM      30.03F
BLAIR          MOSUNNY   83  72  68 E6        29.98F
FREMONT        MOSUNNY   84  67  56 CALM      29.99S
TEKAMAH        SUNNY     85  65  51 E6        29.97F
WAYNE          SUNNY     85  67  55 NW6       30.00F
$$

NEZ050>053-065>068-078-088>093-272100-
SOUTHEAST NEBRASKA

CITY           SKY/WX    TMP DP  RH WIND       PRES   REMARKS
LINCOLN        MOSUNNY   87  67  51 NW9       29.99F HX  90
OMAHA EPPLEY   MOSUNNY   83  69  62 NE9       29.97S
BEATRICE       CLOUDY    87  64  45 W9        29.99F
FALLS CITY     MOSUNNY   88  72  58 CALM      29.96F HX  94
NEBRASKA CITY  MOSUNNY   84  70  61 W6        29.99R
PLATTSMOUTH    MOSUNNY   86  68  54 NW6       29.98F
$$

NEZ044-045-051>053-067-272100-
OMAHA AREA

CITY           SKY/WX    TMP DP  RH WIND       PRES   REMARKS
OMAHA EPPLEY   MOSUNNY   83  69  62 NE9       29.97S
BLAIR          MOSUNNY   83  72  68 E6        29.98F
FREMONT        MOSUNNY   84  67  56 CALM      29.99S
MILLARD        MOSUNNY   86  67  53 W7        29.96F
OFFUTT AFB     MOSUNNY   83  71  67 NE13      29.97S
PLATTSMOUTH    MOSUNNY   86  68  54 NW6       29.98F
WAHOO          FAIR      85  67  55 N3        29.98F
$$




USA.gov is the U.S. government's official web portal to all federal, state and local government web resources and services.